Weather History for KEZM - March, 2014

Change the Weather History Date:

Sunday, March 2, 2014

  Actual Average Record
Temperature  
Mean Temperature 58 °F -  
Max Temperature 78 °F 66 °F 78 °F (2014)
Min Temperature 39 °F 41 °F 34 °F (2013)
Degree Days  
Heating Degree Days 6    
Growing Degree Days 8 (Base 50)    
Moisture  
Dew Point 46 °F    
Average Humidity 71    
Maximum Humidity 100    
Minimum Humidity 33    
Precipitation  
Precipitation 0.00 in - - ()
Sea Level Pressure  
Sea Level Pressure 30.17 in    
Wind  
Wind Speed 1 mph (SSW)    
Max Wind Speed 9 mph    
Max Gust Speed -    
Visibility 8 miles    
Events Fog    
Averages and records for this station are not official NWS values.
T = Trace of Precipitation, MM = Missing Value Source: NWS Daily Summary

Daily Weather History Graph

Daily Weather History Graph

Search for Another Location

Airport or City:

Trip Planner

Search our weather history database for the weather conditions in past years. The results will help you decide how hot, cold, wet, or windy it might be!

Date:

Astronomy

Mar. 02, 2014 Rise Set
Actual Time 6:58 AM EST 6:30 PM EST
Civil Twilight 6:34 AM EST 6:55 PM EST
Nautical Twilight 6:05 AM EST 7:23 PM EST
Astronomical Twilight 5:37 AM EST 7:52 PM EST
Moon 7:36 AM EST (3/2) 8:16 PM EST (3/2)
Length of Visible Light 12h 21m
Length of Day
11h 32m
Waxing Crescent, 3% of the Moon is Illuminated
Mar 2
Waxing Crescent
Mar 8
First Quarter
Mar 16
Full
Mar 23
Last Quarter
Mar 30
New

Hourly Weather History & Observations

Time (EST) Temp. Dew Point Humidity Pressure Visibility Wind Dir Wind Speed Gust Speed Precip Events Conditions
12:15 AM 44.8 °F 44.8 °F 100% 30.25 in 7.0 mi Calm Calm - N/A   Clear
12:35 AM 44.4 °F 44.4 °F 100% 30.25 in 2.5 mi Calm Calm - N/A   Clear
12:55 AM 43.0 °F 43.0 °F 100% 30.25 in 7.0 mi Calm Calm - N/A   Clear
1:15 AM 42.8 °F 42.8 °F 100% 30.25 in 3.0 mi Calm Calm - N/A   Clear
1:35 AM 44.2 °F 44.2 °F 100% 30.25 in 7.0 mi Calm Calm - N/A   Clear
1:55 AM 43.7 °F 43.7 °F 100% 30.25 in 1.8 mi Calm Calm - N/A   Mist
2:15 AM 42.3 °F 42.3 °F 100% 30.23 in 7.0 mi Calm Calm - N/A   Clear
2:35 AM 42.1 °F 42.1 °F 100% 30.23 in 0.8 mi Calm Calm - N/A   Mist
2:55 AM 42.8 °F 42.8 °F 100% 30.22 in 3.0 mi Calm Calm - N/A   Clear
3:15 AM 41.4 °F 41.4 °F 100% 30.23 in 0.8 mi Calm Calm - N/A   Mist
3:35 AM 41.2 °F 41.2 °F 100% 30.23 in 1.2 mi Calm Calm - N/A   Mist
3:55 AM 41.7 °F 41.7 °F 100% 30.23 in 5.0 mi Calm Calm - N/A   Clear
4:15 AM 42.8 °F 42.8 °F 100% 30.22 in 1.2 mi Calm Calm - N/A   Mist
4:35 AM 41.0 °F 41.0 °F 100% 30.22 in 0.5 mi Calm Calm - N/A Fog Fog
4:55 AM 40.3 °F 40.3 °F 100% 30.22 in 5.0 mi Calm Calm - N/A   Clear
5:15 AM 40.1 °F 40.1 °F 100% 30.23 in 1.0 mi Calm Calm - N/A   Mist
5:35 AM 39.7 °F 39.7 °F 100% 30.23 in 3.0 mi Calm Calm - N/A   Clear
5:55 AM 39.7 °F 39.7 °F 100% 30.24 in 4.0 mi Calm Calm - N/A   Clear
6:15 AM 39.2 °F 39.2 °F 100% 30.24 in 0.8 mi Calm Calm - N/A   Mist
6:35 AM 39.9 °F 39.9 °F 100% 30.24 in 1.5 mi Calm Calm - N/A   Mist
6:55 AM 40.8 °F 40.8 °F 100% 30.25 in 0.5 mi Calm Calm - N/A Fog Fog
7:15 AM 39.2 °F 39.2 °F 100% 30.26 in 0.5 mi Calm Calm - N/A Fog Fog
7:35 AM 39.7 °F 39.7 °F 100% 30.26 in 1.2 mi Calm Calm - N/A   Mist
7:55 AM 41.9 °F 41.9 °F 100% 30.26 in 4.0 mi Calm Calm - N/A   Clear
8:15 AM 44.2 °F 44.2 °F 100% 30.27 in 7.0 mi Calm Calm - N/A   Clear
8:35 AM 47.5 °F 47.5 °F 100% 30.27 in 10.0 mi Calm Calm - N/A   Clear
8:55 AM 51.1 °F 51.1 °F 100% 30.27 in 7.0 mi Calm Calm - N/A   Clear
9:15 AM 55.8 °F 53.1 °F 91% 30.28 in 10.0 mi Calm Calm - N/A   Clear
9:40 AM 60.1 °F 53.8 °F 80% 30.27 in 10.0 mi Calm Calm - N/A   Clear
9:55 AM 63.0 °F 52.7 °F 69% 30.26 in 10.0 mi SW 3.5 mph - N/A   Clear
10:15 AM 65.3 °F 50.9 °F 60% 30.26 in 10.0 mi SSE 3.5 mph - N/A   Clear
10:35 AM 67.1 °F 49.1 °F 52% 30.26 in 10.0 mi South 3.5 mph - N/A   Clear
10:55 AM 68.7 °F 46.9 °F 46% 30.26 in 10.0 mi SSW 4.6 mph - N/A   Clear
11:15 AM 70.0 °F 45.0 °F 41% 30.25 in 10.0 mi SSW 4.6 mph - N/A   Clear
11:35 AM 71.4 °F 45.1 °F 39% 30.24 in 10.0 mi SSW 5.8 mph - N/A   Clear
11:55 AM 71.8 °F 43.3 °F 36% 30.24 in 10.0 mi West 5.8 mph - N/A   Clear
12:15 PM 73.2 °F 44.1 °F 35% 30.23 in 10.0 mi Calm Calm - N/A   Clear
12:35 PM 73.8 °F 45.1 °F 36% 30.21 in 10.0 mi ESE 4.6 mph - N/A   Clear
12:55 PM 74.8 °F 46.0 °F 36% 30.20 in 10.0 mi South 6.9 mph - N/A   Clear
1:15 PM 74.8 °F 46.0 °F 36% 30.19 in 10.0 mi Calm Calm - N/A   Clear
1:35 PM 75.4 °F 46.6 °F 36% 30.18 in 10.0 mi ESE 4.6 mph - N/A   Clear
1:55 PM 75.6 °F 46.0 °F 35% 30.16 in 10.0 mi South 9.2 mph - N/A   Clear
2:20 PM 76.6 °F 46.2 °F 34% 30.15 in 10.0 mi SSW 9.2 mph - N/A   Clear
2:35 PM 76.1 °F 46.6 °F 35% 30.14 in 10.0 mi South 5.8 mph - N/A   Clear
2:55 PM 76.8 °F 46.6 °F 34% 30.13 in 10.0 mi Calm Calm - N/A   Clear
3:15 PM 77.0 °F 46.9 °F 34% 30.13 in 10.0 mi SSE 6.9 mph - N/A   Clear
3:35 PM 77.5 °F 47.7 °F 35% 30.12 in 10.0 mi South 8.1 mph - N/A   Clear
3:55 PM 77.4 °F 47.5 °F 35% 30.11 in 10.0 mi South 5.8 mph - N/A   Clear
4:15 PM 78.1 °F 47.3 °F 34% 30.10 in 10.0 mi SSW 5.8 mph - N/A   Clear
4:35 PM 77.9 °F 46.9 °F 33% 30.10 in 10.0 mi SW 6.9 mph - N/A   Clear
4:55 PM 77.7 °F 47.1 °F 34% 30.10 in 10.0 mi West 5.8 mph - N/A   Clear
5:15 PM 77.0 °F 47.1 °F 35% 30.09 in 10.0 mi SSW 8.1 mph - N/A   Clear
5:35 PM 76.3 °F 47.3 °F 36% 30.09 in 10.0 mi SSW 3.5 mph - N/A   Clear
5:55 PM 75.2 °F 47.8 °F 38% 30.09 in 10.0 mi SSW 3.5 mph - N/A   Clear
6:15 PM 72.3 °F 49.6 °F 45% 30.09 in 10.0 mi South 3.5 mph - N/A   Clear
6:35 PM 70.7 °F 49.6 °F 47% 30.08 in 10.0 mi South 3.5 mph - N/A   Clear
6:55 PM 69.1 °F 50.2 °F 51% 30.08 in 10.0 mi Calm Calm - N/A   Clear
7:15 PM 67.3 °F 50.7 °F 55% 30.07 in 10.0 mi South 3.5 mph - N/A   Clear
7:35 PM 63.5 °F 51.4 °F 65% 30.07 in 10.0 mi Calm Calm - N/A   Clear
7:55 PM 62.1 °F 51.3 °F 68% 30.07 in 10.0 mi SSE 3.5 mph - N/A   Clear
8:15 PM 60.8 °F 52.3 °F 74% 30.07 in 10.0 mi Calm Calm - N/A   Clear
8:35 PM 59.2 °F 52.2 °F 78% 30.07 in 10.0 mi Calm Calm - N/A   Clear
8:55 PM 57.2 °F 52.0 °F 83% 30.06 in 10.0 mi Calm Calm - N/A   Clear
9:15 PM 56.5 °F 52.2 °F 85% 30.05 in 10.0 mi Calm Calm - N/A   Clear
9:35 PM 55.0 °F 52.2 °F 90% 30.05 in 10.0 mi Calm Calm - N/A   Clear
9:55 PM 55.0 °F 53.4 °F 94% 30.05 in 10.0 mi South 3.5 mph - N/A   Clear
10:15 PM 56.3 °F 52.3 °F 87% 30.06 in 10.0 mi SSW 3.5 mph - N/A   Clear
10:35 PM 58.1 °F 50.7 °F 76% 30.06 in 10.0 mi Calm Calm - N/A   Clear
10:55 PM 59.7 °F 50.2 °F 71% 30.06 in 10.0 mi SSW 3.5 mph - N/A   Clear
11:15 PM 60.1 °F 50.0 °F 69% 30.05 in 10.0 mi SSW 3.5 mph - N/A   Clear
11:35 PM 59.4 °F 50.0 °F 71% 30.04 in 10.0 mi SSW 4.6 mph - N/A   Clear
11:55 PM 58.6 °F 50.0 °F 73% 30.03 in 10.0 mi South 3.5 mph - N/A   Clear